Regional Weather Roundup
Issued by NWS

Home | Current Version | Previous Version | Graphics & Text | Print | Product List | Glossary On
Versions: 1 2 3 4 5 6 7 8 9 10 11 12 13 14 15 16 17 18 19 20 21 22 23 24 25 26 27 28 29 30 31 32 33 34 35 36 37 38 39 40 41 42 43 44 45 46 47 48 49 50
135
ASUS43 KOAX 070302
RWRNE

WEATHER ROUNDUP FOR NEBRASKA
NATIONAL WEATHER SERVICE OMAHA NE
900 PM CST TUE DEC 06 2016

NOTES: SATELLITE DATA IS BEING USED TO AUGMENT CLOUD COVER ABOVE
       12000 FEET.
       "FAIR" INDICATES FEW OR NO CLOUDS BELOW 12,000 FEET WITH NO
       SIGNIFICANT WEATHER AND/OR OBSTRUCTIONS TO VISIBILITY.

  * THESE STATIONS DO NOT REPORT WEATHER SUCH AS RAIN...SNOW OR FOG.

NEZ001>004-019>022-054>056-070400-
NEBRASKA PANHANDLE

CITY           SKY/WX    TMP DP  RH WIND       PRES   REMARKS
SCOTTSBLUFF    CLOUDY    17   3  54 N6        30.00R WCI   9
ALLIANCE       CLOUDY    15   3  59 NW8       30.00R WCI   4
CHADRON        CLOUDY    10   1  67 W13       30.07R WCI  -5
KIMBALL        CLOUDY    20   9  62 NE6       29.94R WCI  13
SIDNEY         CLOUDY    21   3  45 E6        29.98R WCI  13
$$

NEZ057>060-069>072-079>082-070400-
SOUTHWEST NEBRASKA

CITY           SKY/WX    TMP DP  RH WIND       PRES   REMARKS
NORTH PLATTE   CLOUDY    22   5  48 E5        30.07R WCI  16
IMPERIAL       CLOUDY    23   7  50 NE5       30.02R WCI  17
LEXINGTON      MOCLDY    24  13  64 NE3       30.09R
MCCOOK         CLOUDY    27   5  39 CALM      30.06R
OGALLALA       CLOUDY    24   8  49 E3        30.03S
$$

NEZ005>010-023>029-035>040-094-070400-
NORTH CENTRAL NEBRASKA

CITY           SKY/WX    TMP DP  RH WIND       PRES   REMARKS
VALENTINE      CLEAR     10   0  63 NW13      30.09R WCI  -5
AINSWORTH      CLEAR     12   4  69 NW14      30.09R WCI  -3
BROKEN BOW     CLOUDY    21   7  54 N13       30.07R WCI   9
O`NEILL        CLEAR     15   7  70 NW10      30.10R WCI   2
ORD            PTCLDY    18   5  57 NW9       30.10R WCI   7
$$

NEZ041-046>049-061>064-073>077-083>087-070400-
SOUTH CENTRAL NEBRASKA

CITY           SKY/WX    TMP DP  RH WIND       PRES   REMARKS
GRAND ISLAND   PTCLDY    21   7  54 NW6       30.12R WCI  13
AURORA         CLEAR     19   7  59 NW7       30.11R WCI  10
HASTINGS       CLEAR     22  10  60 N6        30.12R WCI  14
HEBRON         CLOUDY    22  17  79 CALM      30.13R
HOLDREGE       CLEAR     22   8  54 CALM      30.08R
KEARNEY *      CLOUDY    23   5  46 N5        30.10R WCI  17
YORK           CLEAR     18  10  73 NW10      30.11R WCI   6
$$

NEZ011>018-030>034-042>045-070400-
NORTHEAST NEBRASKA

CITY           SKY/WX    TMP DP  RH WIND       PRES   REMARKS
NORFOLK        CLEAR     19   6  57 W15       30.09R WCI   5
ALBION         CLEAR     19   7  60 NW12      30.11R WCI   6
BLAIR          CLEAR     25  11  57 W7        30.09R WCI  17
FREMONT        CLEAR     22  12  66 W9        30.11R WCI  11
TEKAMAH        CLEAR     23  11  60 NW13      30.10R WCI  11
WAYNE          CLEAR     18   9  65 W10       30.08R WCI   7
$$

NEZ050>053-065>068-078-088>093-070400-
SOUTHEAST NEBRASKA

CITY           SKY/WX    TMP DP  RH WIND       PRES   REMARKS
LINCOLN        CLEAR     21   9  59 NW5       30.13R WCI  15
OMAHA EPPLEY   CLEAR     26  10  50 NW13      30.11R WCI  15
BEATRICE       CLOUDY    25  16  68 W6        30.13R WCI  18
FALLS CITY     CLEAR     27  14  58 W9        30.13R WCI  18
NEBRASKA CITY  CLEAR     24  10  53 W6        30.12R WCI  17
PLATTSMOUTH    CLEAR     23   9  54 W8        30.10R WCI  14
$$

NEZ044-045-051>053-067-070400-
OMAHA AREA

CITY           SKY/WX    TMP DP  RH WIND       PRES   REMARKS
OMAHA EPPLEY   CLEAR     26  10  50 NW13      30.11R WCI  15
BLAIR          CLEAR     25  11  57 W7        30.09R WCI  17
FREMONT        CLEAR     22  12  66 W9        30.11R WCI  11
MILLARD        CLEAR     26  10  50 W8        30.11R WCI  18
OFFUTT AFB     CLEAR     23  10  56 NW9       30.11R WCI  13
PLATTSMOUTH    CLEAR     23   9  54 W8        30.10R WCI  14
WAHOO          FAIR      23  11  58 NW9       30.11R WCI  13
$$




USA.gov is the U.S. government's official web portal to all federal, state and local government web resources and services.